Regional Weather Roundup
Issued by NWS Charleston, WV

Home | Current Version | Previous Version | Graphics & Text | Print | Product List | Glossary On
Versions: 1 2 3 4 5 6 7 8 9 10 11 12 13 14 15 16 17 18 19 20 21 22 23 24 25 26 27 28 29 30 31 32 33 34 35 36 37 38 39 40 41 42 43 44 45 46 47 48 49 50
000
ASUS41 KRLX 280910
RWRRLX
West Virginia Regional Weather Roundup
National Weather Service Charleston WV
400 AM EST TUE FEB 28 2017

Note: "fair" indicates few or no clouds below 12,000 feet with no
significant weather and/or obstructions to visibility.

WVZ003-281000-
Northern Panhandle of West Virginia

CITY           SKY/WX    TMP DP  RH WIND       PRES   REMARKS
WHEELING       PTCLDY    42  36  79 SE6       30.21F
$$

WVZ009-281000-
Northwest West Virginia

CITY           SKY/WX    TMP DP  RH WIND       PRES   REMARKS
PARKERSBURG    CLOUDY    39  37  92 E5        30.21F FOG
$$

WVZ006-281000-
Western West Virginia

CITY           SKY/WX    TMP DP  RH WIND       PRES   REMARKS
HUNTINGTON     CLEAR     38  35  89 E7        30.16F
$$

WVZ015-281000-
West Central West Virginia

CITY           SKY/WX    TMP DP  RH WIND       PRES   REMARKS
CHARLESTON     CLEAR     37  35  92 CALM      30.21F
$$

WVZ022-031-281000-
North Central West Virginia

CITY           SKY/WX    TMP DP  RH WIND       PRES   REMARKS
CLARKSBURG     CLOUDY    38  35  89 CALM      30.23F
MORGANTOWN     CLOUDY    43  32  65 CALM      30.24F
$$

WVZ025-035-042-045-281000-
Southern West Virginia

CITY           SKY/WX    TMP DP  RH WIND       PRES   REMARKS
BECKLEY        CLEAR     45  31  58 SE8       30.23F
LOGAN            N/A     50  34  53 VRB6      30.19F
BLUEFIELD      CLEAR     46  32  58 S3        30.26F
LEWISBURG      CLEAR     32  26  78 CALM      30.26F
$$

WVZ047-281000-
Northern Mountains of West Virginia

CITY           SKY/WX    TMP DP  RH WIND       PRES   REMARKS
ELKINS         CLOUDY    37  30  75 CALM      30.26F
$$

WVZ052-281000-
Eastern Panhandle of West Virginia

CITY           SKY/WX    TMP DP  RH WIND       PRES   REMARKS
MARTINSBURG    CLOUDY    41  29  62 CALM      30.29R
PETERSBURG     CLOUDY    38  33  83 W3        30.29F
$$



USA.gov is the U.S. government's official web portal to all federal, state and local government web resources and services.